Voltar ao catálogo

STARLINK-37392

AtivoComunicaçõesVLEO
NORAD 69171·PAYLOAD·🇺🇸 United States

Lançado May 21, 2026 de Cape Canaveral Space Force Station

Loading…

Próximas Passagens (próximas 24 horas)

TLE

AtualizadoSource: CelesTrak SupGP

Época: Sep 15, 2026, 03:37 UTC

1 69171C 26111Z   26258.15118056 -.00026864  00000+0 -79390-3 0  2581
2 69171  53.1564  90.4441 0001195  89.8486 191.5258 15.34396513    13

Acompanhe STARLINK-37392 em tempo real com AllMySat

Download on the App Store